Location: *
(58.7167°N, 26.1833°E)
Time: 10:33:36
(UTC+00:00)

Cosmos 2237 Rocket - Pass Details

Date: 25 August 2019
Orbit: 833 x 852 km, 71.0° (Epoch: 20 October)

Event Time Altitude Azimuth Distance (km) Brightness Sun altitude
Rises 18:39:40 0° 296° (WNW) 3,401 7.4 -8.0°
Reaches altitude 10° 18:42:36 10° 310° (NW) 2,470 6.4 -8.3°
Maximum altitude 18:47:08 24° 3° (N) 1,693 4.2 -8.8°
Drops below altitude 10° 18:51:42 10° 57° (ENE) 2,479 4.5 -9.2°
Sets 18:54:39 0° 71° (ENE) 3,418 5.0 -9.5°
